SL-16 DEB, 22371

Orbit data source: Space-Track

SL-16 DEB, 22371 is space debris in LEO originally from a launch on Fri, 25 Dec 1992 UTC launched from the Tyuratam Missile And Space Complex (TTMTR). Debris objects in space refer to the collection of defunct objects orbiting the Earth. Examples of debris include non-operational satellites, rocket bodies, and fragments generated from explosions, collisions, or faulty payload assembly.

Loading next visibility...
Identifier
22371, 1992-093BL
Orbit
LEO
Country
Flag of CISCIS
Related business
Manufacturer
Unknown
Mission
Spacecraft
Bus & Motor
Unknown
Mass
Unknown
Launch date (UTC)
1992-12-25 (33 years ago)
Launch vehicle
Unknown
Launch site
Tyuratam Missile And Space Complex (TTMTR)
Object type
Payload
Rocket body
Debris
Shape & HBR
Unknown shape, 1.4 m
Radar Cross Section
Large (>1 m²)

Expand to show TLE details & history
Last TLE update: 7 hours ago

TLE from 7 hours ago
0 SL-16 DEB
1 22371U 92093BL  26127.18140183  .00000112  00000-0  11224-3 0  9999
2 22371  71.1667 284.0862 0112074 326.8688 206.7624 13.93892950693667
Epoch: 2026-05-07T04:21Z
TLE epoch observation values (Epoch: 2026-05-07T04:21:13.118Z)
Latitude
6.50077°
Longitude
171.53447°
Altitude
989.974 km
Speed
7.32 km/s
True Right ascension
06h 47m 28s
True Declination
6° 27' 48"
Sunlit
Object was in daylight at epoch
Visualization orbit readout
Latitude
Unknown
Longitude
Unknown
Altitude
Unknown
Speed
Unknown
Apparent Right ascension
Unknown
Apparent Declination
Unknown
Sunlit
N/A
Visualization observer readout
Local Sidereal Time
19:06:48
Azimuth
Unknown
Elevation
Unknown
Doppler factor
Unknown
Orbital elements
Apogee altitude
994.663 km
Perigee altitude
831.235 km
Semi-major axis
7,291.086 km
Eccentricity
0.01121
Inclination
71.1667°
RAAN
284.0862°
Arg. of periapsis
326.8688°
True anomaly
206.19126°
Mean anomaly
206.7624°
Eccentric anomaly
206.47612°
Mean motion
3.48622 °/min
Orbital period
103.26 mins
BSTAR
0.00011224
Loading maneuver chart data...
Computing Atmospheric mass density...
Loading historical data...
Loading historical data...
Loading historical data...
Loading historical data...
Loading historical data...
Loading historical data...
Loading historical data...

Documentation

Showing up to 5 results
|